Stations météo

réclame
Mon MeteoGroup
Moron de la Frontera, Espagne (8397): Température de l'air & dewpoint: 15.09.2018 00:00:00 - 21.09.2018 00:00:00 (CEST)Moron de la Frontera, Espagne (8397): Vitesse du vent: 15.09.2018 00:00:00 - 21.09.2018 00:00:00 (CEST)Moron de la Frontera, Espagne (8397): Direction du vent: 15.09.2018 00:00:00 - 21.09.2018 00:00:00 (CEST)Moron de la Frontera, Espagne (8397): reduced air pressure: 15.09.2018 00:00:00 - 21.09.2018 00:00:00 (CEST)Moron de la Frontera, Espagne (8397): visibility: 15.09.2018 00:00:00 - 21.09.2018 00:00:00 (CEST)
Date & Time tt [°C] td [°C] ff [km/h] ff [knt] dd ppp [hPa] vv [km]
21.09.2018 00:00:00 - - - - - - -
20.09.2018 23:00:00 24,9 18,1 11 6 W 1017,5 20
20.09.2018 22:00:00 - - - - - - -
20.09.2018 21:00:00 - - - - - - -
20.09.2018 20:00:00 30,9 14,9 4 2 W 1015,8 15
20.09.2018 19:00:00 - - - - - - -
20.09.2018 18:00:00 - - - - - - -
20.09.2018 17:00:00 33,1 15,6 4 2 WSW 1016,2 15
20.09.2018 16:00:00 - - - - - - -
20.09.2018 15:00:00 - - - - - - -
20.09.2018 14:00:00 30,1 16,1 5 3 W 1018,3 9
20.09.2018 13:00:00 - - - - - - -
20.09.2018 12:00:00 - - - - - - -
20.09.2018 11:00:00 26,0 17,4 4 2 SW 1019,5 6
20.09.2018 10:00:00 - - - - - - -
20.09.2018 09:00:00 - - - - - - -
20.09.2018 08:00:00 21,3 16,7 0 0 N 1018,7 15
20.09.2018 07:00:00 - - - - - - -
20.09.2018 06:00:00 - - - - - - -
20.09.2018 05:00:00 21,1 17,5 5 3 SSE 1018,8 12
20.09.2018 04:00:00 - - - - - - -
20.09.2018 03:00:00 - - - - - - -
20.09.2018 02:00:00 22,9 17,6 4 2 S 1019,2 15
20.09.2018 01:00:00 - - - - - - -
20.09.2018 00:00:00 - - - - - - -
19.09.2018 23:00:00 25,9 17,0 9 5 WSW 1019,1 15
19.09.2018 22:00:00 - - - - - - -
19.09.2018 21:00:00 - - - - - - -
19.09.2018 20:00:00 32,3 13,0 9 5 W 1016,9 20
19.09.2018 19:00:00 - - - - - - -
19.09.2018 18:00:00 - - - - - - -
19.09.2018 17:00:00 33,9 13,4 8 4 NNE 1016,6 20
19.09.2018 16:00:00 - - - - - - -
19.09.2018 15:00:00 - - - - - - -
19.09.2018 14:00:00 31,7 15,6 5 3 ENE 1018,5 20
19.09.2018 13:00:00 - - - - - - -
19.09.2018 12:00:00 - - - - - - -
19.09.2018 11:00:00 26,2 18,1 4 2 ENE 1018,7 18
19.09.2018 10:00:00 - - - - - - -
19.09.2018 09:00:00 - - - - - - -
19.09.2018 08:00:00 20,2 17,4 4 2 SSE 1017,8 15
19.09.2018 07:00:00 - - - - - - -
19.09.2018 06:00:00 - - - - - - -
19.09.2018 05:00:00 21,6 18,2 5 3 N 1017,5 15
19.09.2018 04:00:00 - - - - - - -
19.09.2018 03:00:00 - - - - - - -
19.09.2018 02:00:00 22,7 18,3 8 4 SSW 1017,3 15
19.09.2018 01:00:00 - - - - - - -
19.09.2018 00:00:00 - - - - - - -
18.09.2018 23:00:00 24,6 18,5 9 5 WSW 1017,4 15
18.09.2018 22:00:00 - - - - - - -
18.09.2018 21:00:00 - - - - - - -
18.09.2018 20:00:00 30,2 15,9 4 2 W 1014,8 15
18.09.2018 19:00:00 - - - - - - -
18.09.2018 18:00:00 - - - - - - -
18.09.2018 17:00:00 32,4 15,4 4 2 NW 1014,2 20
18.09.2018 16:00:00 - - - - - - -
18.09.2018 15:00:00 - - - - - - -
18.09.2018 14:00:00 30,4 16,0 4 2 W 1015,6 20
18.09.2018 13:00:00 - - - - - - -
18.09.2018 12:00:00 - - - - - - -
18.09.2018 11:00:00 25,5 19,4 9 5 SW 1016,7 9
18.09.2018 10:00:00 - - - - - - -
18.09.2018 09:00:00 - - - - - - -
18.09.2018 08:00:00 20,7 18,8 4 2 S 1015,0 6
18.09.2018 07:00:00 - - - - - - -
18.09.2018 06:00:00 - - - - - - -
18.09.2018 05:00:00 22,4 19,4 8 4 SW 1014,5 15
18.09.2018 04:00:00 - - - - - - -
18.09.2018 03:00:00 - - - - - - -
18.09.2018 02:00:00 23,6 19,5 8 4 SW 1014,7 15
18.09.2018 01:00:00 - - - - - - -
18.09.2018 00:00:00 - - - - - - -
17.09.2018 23:00:00 25,2 19,3 11 6 SW 1014,6 25
17.09.2018 22:00:00 - - - - - - -
17.09.2018 21:00:00 - - - - - - -
17.09.2018 20:00:00 29,0 15,5 11 6 WSW 1012,5 25
17.09.2018 19:00:00 - - - - - - -
17.09.2018 18:00:00 - - - - - - -
17.09.2018 17:00:00 32,6 15,1 5 3 N 1012,5 25
17.09.2018 16:00:00 - - - - - - -
17.09.2018 15:00:00 - - - - - - -
17.09.2018 14:00:00 31,0 16,2 4 2 NNW 1015,0 25
17.09.2018 13:00:00 - - - - - - -
17.09.2018 12:00:00 - - - - - - -
17.09.2018 11:00:00 25,9 17,3 5 3 S 1016,2 20
17.09.2018 10:00:00 - - - - - - -
17.09.2018 09:00:00 - - - - - - -
17.09.2018 08:00:00 20,1 18,0 0 0 N 1016,0 8
17.09.2018 07:00:00 - - - - - - -
17.09.2018 06:00:00 - - - - - - -
17.09.2018 05:00:00 21,2 18,4 4 2 SSW 1016,9 25
17.09.2018 04:00:00 - - - - - - -
17.09.2018 03:00:00 - - - - - - -
17.09.2018 02:00:00 23,1 19,1 0 0 N 1017,0 20
17.09.2018 01:00:00 - - - - - - -
17.09.2018 00:00:00 - - - - - - -
16.09.2018 23:00:00 24,8 17,3 5 3 SSW 1017,3 25
16.09.2018 22:00:00 - - - - - - -
16.09.2018 21:00:00 - - - - - - -
16.09.2018 20:00:00 31,1 14,3 11 6 ENE 1015,6 25
16.09.2018 19:00:00 - - - - - - -
16.09.2018 18:00:00 - - - - - - -
16.09.2018 17:00:00 31,7 15,2 15 8 ENE 1015,7 25
16.09.2018 16:00:00 - - - - - - -
16.09.2018 15:00:00 - - - - - - -
16.09.2018 14:00:00 29,6 15,7 15 8 ENE 1017,9 25
16.09.2018 13:00:00 - - - - - - -
16.09.2018 12:00:00 - - - - - - -
16.09.2018 11:00:00 25,4 17,1 9 5 ESE 1019,6 15
16.09.2018 10:00:00 - - - - - - -
16.09.2018 09:00:00 - - - - - - -
16.09.2018 08:00:00 20,0 18,8 5 3 E 1018,9 1,5
16.09.2018 07:00:00 - - - - - - -
16.09.2018 06:00:00 - - - - - - -
16.09.2018 05:00:00 21,7 20,2 0 0 N 1018,7 3,0
16.09.2018 04:00:00 - - - - - - -
16.09.2018 03:00:00 - - - - - - -
16.09.2018 02:00:00 22,4 19,9 4 2 E 1019,9 9
16.09.2018 01:00:00 - - - - - - -
16.09.2018 00:00:00 - - - - - - -
15.09.2018 23:00:00 22,5 19,7 5 3 S 1019,0 15
15.09.2018 22:00:00 - - - - - - -
15.09.2018 21:00:00 - - - - - - -
15.09.2018 20:00:00 23,2 19,8 5 3 SE 1017,5 15
15.09.2018 19:00:00 - - - - - - -
15.09.2018 18:00:00 - - - - - - -
15.09.2018 17:00:00 30,3 15,6 4 2 NNW 1015,9 20
15.09.2018 16:00:00 - - - - - - -
15.09.2018 15:00:00 - - - - - - -
15.09.2018 14:00:00 26,9 15,6 2 1 N 1017,6 20
15.09.2018 13:00:00 - - - - - - -
15.09.2018 12:00:00 - - - - - - -
15.09.2018 11:00:00 22,2 17,8 4 2 N 1018,1 15
15.09.2018 10:00:00 - - - - - - -
15.09.2018 09:00:00 - - - - - - -
15.09.2018 08:00:00 19,2 17,5 5 3 NE 1016,8 15
15.09.2018 07:00:00 - - - - - - -
15.09.2018 06:00:00 - - - - - - -
15.09.2018 05:00:00 19,9 18,0 5 3 E 1016,6 15
15.09.2018 04:00:00 - - - - - - -
15.09.2018 03:00:00 - - - - - - -
15.09.2018 02:00:00 19,6 18,1 4 2 SE 1018,0 15
15.09.2018 01:00:00 - - - - - - -
15.09.2018 00:00:00 - - - - - - -

tt = Température de l'air
td = dewpoint
ff = Vitesse du vent
dd = Direction du vent
ppp = reduced air pressure
vv = visibility

stations d'obs. à proximité